Regional Weather Roundup
Issued by NWS

Home | Current Version | Previous Version | Text Only | Print | Product List | Glossary On
Versions: 1 2 3 4 5 6 7 8 9 10 11 12 13 14 15 16 17 18 19 20 21 22 23 24 25 26 27 28 29 30 31 32 33 34 35 36 37 38 39 40 41 42 43 44 45 46 47 48 49 50
000
ASUS45 KABQ 050210
RWRNM
NEW MEXICO REGIONAL WEATHER ROUNDUP
NATIONAL WEATHER SERVICE ALBUQUERQUE NM
700 PM MST SUN DEC 04 2016

NOTE: "FAIR" MEANS FEW OR NO CLOUDS BELOW 12,000 FEET AGL WITH NO
       SIGNIFICANT WEATHER OR OBSTRUCTIONS TO VISION.

      THIS PRODUCT IS RELEASED AS TWO VERSIONS.  ONE VERSION NEAR
      THE TOP OF THE HOUR CONTAINING PRELIMINARY DATA FROM ALBUQUERQUE
      AND OTHER STATIONS.  A FINAL VERSION WITH ADDITIONAL DATA IS
      ISSUED ABOUT 10 MINUTES AFTER THE HOUR.

NMZ501-503-504-510>518-050300-
NORTHWEST PLATEAU/NORTHCENTRAL MOUNTAINS

CITY           SKY/WX    TMP DP  RH WIND       PRES   REMARKS
FARMINGTON     FAIR      32  17  54 CALM      30.08S
LOS ALAMOS     FAIR      36  16  43 CALM      30.07S
SANTA FE       FAIR      33  14  45 NW3       30.05S
TAOS           FAIR      27  10  50 E6        30.06R WCI  20
ANGEL FIRE     FAIR      21  10  64 SE6       30.05S WCI  13

$$
NMZ402-403-502-505>509-050300-
WESTCENTRAL MOUNTAINS/SOUTHWEST MOUNTAINS

CITY           SKY/WX    TMP DP  RH WIND       PRES   REMARKS
GALLUP         FAIR      28  20  71 CALM      30.10S
GRANTS         FAIR      29  16  58 NW7       30.10S WCI  22
SILVER CITY    FAIR      32  27  83 NW3       30.07R

$$
NMZ407-409-411-412-050300-
SOUTHERN DESERTS

CITY           SKY/WX    TMP DP  RH WIND       PRES   REMARKS
DEMING         FAIR      42  28  57 SW5       30.05R
LAS CRUCES     FAIR      42  23  47 SW5       30.05S
HOLLOMAN AFB   FAIR      44  26  49 E5        30.06S
T OR C         FAIR      41  13  31 CALM      30.03F

$$
NMZ519>523-050300-
CENTRAL VALLEYS/CENTRAL HIGHLANDS

CITY           SKY/WX    TMP DP  RH WIND       PRES   REMARKS
ALBUQUERQUE    FAIR      39  14  36 E6        30.06F WCI  35
DOUBLE EAGLE   CLEAR     30  14  51 CALM      30.07F
MORIARTY ARPT  FAIR      29  11  47 NE5       30.07S WCI  23
CLINES CORNERS FAIR      28  11  48 NW14      30.05S WCI  17
BELEN          FAIR      36  15  42 CALM      30.07S
SOCORRO        FAIR      35  16  46 W6        30.06S WCI  30

$$
NMZ524>526-539-540-050300-
SOUTHCENTRAL MOUNTAINS

CITY           SKY/WX    TMP DP  RH WIND       PRES   REMARKS
RUIDOSO        FAIR      32  19  59 NW3       30.06F

$$
NMZ527>531-050300-
NORTHEAST HIGHLANDS/NORTHEAST PLAINS

CITY           SKY/WX    TMP DP  RH WIND       PRES   REMARKS
LAS VEGAS      FAIR      28  13  53 S9        29.98F WCI  19
RATON          FAIR      28  17  63 W5        29.96F WCI  23
CLAYTON        FAIR      34  23  64 SW9       29.95S WCI  27

$$
NMZ532>537-050300-
EASTCENTRAL PLAINS

CITY           SKY/WX    TMP DP  RH WIND       PRES   REMARKS
TUCUMCARI      FAIR      33  23  66 SW8       29.98F WCI  26
CANNON AFB     FAIR      36  29  76 S3        30.02F
CLOVIS AIRPORT FAIR      34  25  69 S6        30.02F WCI  29

$$
NMZ028-029-538-050300-
SOUTHEAST PLAINS

CITY           SKY/WX    TMP DP  RH WIND       PRES   REMARKS
ROSWELL        FAIR      33  29  85 SW6       30.04F WCI  28
ARTESIA        FAIR      34  34 100 SW9       30.07S WCI  26
CARLSBAD       FAIR      34  34 100 SW6       30.07S WCI  29
HOBBS          FAIR      39  36  87 SE5       30.08R


$$




USA.gov is the U.S. government's official web portal to all federal, state and local government web resources and services.